Ketchikan, AK

10:24 PM AKDT on October 15, 2018 (GMT -0800)
Ketchikan International

Weather History for PAKT - May, 2018

Change the Weather History Date:

Wednesday, May 2, 2018

  Actual Average Record
Temperature  
Mean Temperature 50 °F -  
Max Temperature 54 °F 52 °F 66 °F (2014)
Min Temperature 46 °F 40 °F 28 °F (1997)
Degree Days  
Heating Degree Days 16    
Moisture  
Dew Point 45 °F    
Average Humidity 92    
Maximum Humidity 100    
Minimum Humidity 76    
Precipitation  
Precipitation 0.09 in - - ()
Sea Level Pressure  
Sea Level Pressure 30.11 in    
Wind  
Wind Speed 9 mph (SE)    
Max Wind Speed 16 mph    
Max Gust Speed -    
Visibility 6 miles    
Events Rain    
Averages and records for this station are not official NWS values.
T = Trace of Precipitation, MM = Missing Value Source: NWS Daily Summary

Daily Weather History Graph

Daily Weather History Graph

Search for Another Location

Airport or City:

Astronomy

May. 02, 2018 Rise Set
Actual Time 5:02 AM AKDT 8:26 PM AKDT
Civil Twilight 4:18 AM AKDT 9:10 PM AKDT
Nautical Twilight 3:19 AM AKDT 10:10 PM AKDT
Astronomical Twilight 1:46 AM AKDT 11:48 PM AKDT
Moon 11:25 PM AKDT (5/2) 6:56 AM AKDT (5/2)
Length of Visible Light 16h 51m
Length of Day
15h 23m
Waning Gibbous, 92% of the Moon is Illuminated
May 2
Waning Gibbous
May 7
Last Quarter
May 15
New
May 21
First Quarter
May 29
Full

Hourly Weather History & Observations

Time (AKDT) Temp. Windchill Dew Point Humidity Pressure Visibility Wind Dir Wind Speed Gust Speed Precip Events Conditions
12:24 AM 46.9 °F - 44.1 °F 90% 30.13 in 4.0 mi SE 9.2 mph - N/A   Overcast
12:42 AM 46.9 °F - 45.0 °F 93% 30.13 in 4.0 mi SE 11.5 mph - N/A   Overcast
12:53 AM 46.9 °F - 45.0 °F 93% 30.14 in 3.0 mi ESE 10.4 mph - N/A   Overcast
1:01 AM 46.9 °F - 45.0 °F 93% 30.13 in 2.5 mi ESE 11.5 mph - N/A   Overcast
1:31 AM 46.0 °F 41.9 °F 45.0 °F 96% 30.13 in 2.0 mi ESE 8.1 mph - N/A   Overcast
1:53 AM 46.0 °F 41.0 °F 45.0 °F 96% 30.13 in 2.0 mi ESE 10.4 mph - N/A   Overcast
2:34 AM 46.9 °F - 46.0 °F 97% 30.11 in 3.0 mi ESE 11.5 mph - N/A   Overcast
2:53 AM 46.0 °F 41.0 °F 45.0 °F 96% 30.12 in 5.0 mi ESE 10.4 mph - 0.00 in Rain Light Rain
3:53 AM 46.0 °F 43.1 °F 46.0 °F 100% 30.11 in 3.0 mi SE 5.8 mph - 0.00 in   Overcast
4:04 AM 46.0 °F 41.4 °F 46.0 °F 100% 30.11 in 2.0 mi ESE 9.2 mph - N/A   Overcast
4:24 AM 46.0 °F 40.6 °F 46.0 °F 100% 30.10 in 0.8 mi ESE 11.5 mph - N/A   Overcast
4:45 AM 46.0 °F 42.5 °F 45.0 °F 96% 30.09 in 2.5 mi SE 6.9 mph - N/A   Overcast
4:53 AM 46.0 °F 42.5 °F 46.0 °F 100% 30.09 in 6.0 mi SE 6.9 mph - N/A   Overcast
5:40 AM 46.9 °F - 45.0 °F 93% 30.10 in 10.0 mi ESE 6.9 mph - N/A   Overcast
5:53 AM 46.9 °F - 45.0 °F 93% 30.10 in 9.0 mi ESE 6.9 mph - N/A   Overcast
6:06 AM 46.9 °F - 45.0 °F 93% 30.10 in 10.0 mi SE 6.9 mph - N/A   Overcast
6:53 AM 46.4 °F 44.3 °F 44.6 °F 93% 30.11 in 10.0 mi SSE 4.6 mph - N/A   Overcast
7:53 AM 48.2 °F - 44.6 °F 87% 30.11 in 10.0 mi ESE 10.4 mph - N/A   Overcast
8:53 AM 48.2 °F - 44.6 °F 87% 30.12 in 10.0 mi ESE 10.4 mph - N/A   Mostly Cloudy
9:53 AM 50.0 °F - 44.6 °F 82% 30.12 in 10.0 mi ESE 8.1 mph - N/A   Mostly Cloudy
10:53 AM 51.8 °F - 44.6 °F 76% 30.12 in 10.0 mi ESE 9.2 mph - N/A   Mostly Cloudy
11:53 AM 51.8 °F - 44.6 °F 76% 30.12 in 10.0 mi ESE 13.8 mph - N/A   Mostly Cloudy
12:53 PM 51.8 °F - 46.4 °F 82% 30.13 in 10.0 mi ESE 12.7 mph - N/A   Mostly Cloudy
1:53 PM 53.1 °F - 46.0 °F 77% 30.13 in 10.0 mi SE 16.1 mph - N/A   Mostly Cloudy
2:53 PM 50.0 °F - 45.0 °F 83% 30.13 in 10.0 mi SE 13.8 mph - N/A   Overcast
3:53 PM 48.9 °F - 45.0 °F 86% 30.13 in 10.0 mi SE 11.5 mph - N/A   Overcast
4:53 PM 48.0 °F - 45.0 °F 89% 30.12 in 10.0 mi SE 10.4 mph - N/A   Overcast
5:53 PM 48.0 °F - 45.0 °F 89% 30.10 in 10.0 mi SE 8.1 mph - N/A   Overcast
6:53 PM 48.0 °F - 45.0 °F 89% 30.09 in 10.0 mi SSE 6.9 mph - N/A   Overcast
7:53 PM 46.4 °F 43.5 °F 44.6 °F 93% 30.09 in 10.0 mi SSE 5.8 mph - N/A   Overcast
8:53 PM 46.0 °F 44.8 °F 45.0 °F 96% 30.09 in 1.8 mi SSE 3.5 mph - 0.02 in   Overcast
9:31 PM 46.0 °F 44.8 °F 45.0 °F 96% 30.09 in 2.0 mi SSE 3.5 mph - 0.01 in   Overcast
9:53 PM 46.0 °F - 45.0 °F 96% 30.09 in 2.5 mi Calm Calm - 0.02 in Rain Light Rain
10:12 PM 46.9 °F - 45.0 °F 93% 30.09 in 2.0 mi Calm Calm - 0.01 in Rain Light Rain
10:53 PM 46.9 °F - 45.0 °F 93% 30.09 in 3.0 mi Calm Calm - 0.04 in Rain Light Rain
10:57 PM 46.0 °F 44.8 °F 45.0 °F 96% 30.09 in 2.5 mi South 3.5 mph - 0.00 in Rain Light Rain
11:05 PM 46.0 °F - 45.0 °F 96% 30.08 in 3.0 mi Calm Calm - 0.01 in Rain Light Rain
11:53 PM 46.0 °F - 45.0 °F 96% 30.09 in 10.0 mi Calm Calm - 0.01 in Rain Light Rain